sat.trackr.live / text

‹ back to catalog

STARLINK-4115

NORAD 53032 · 2022-076AY

PAYLOAD ACTIVE UNKNOWN

§ Identity

Operator
Country
US
Launch date
2022-07-07
Launch site
AFETR
Launch vehicle
Mass (kg)
RCS (m²)

Purposes: comms

External: N2YO · Heavens-Above · Gunter

§ Orbital elements

Epoch: 2026-09-20T01:31:44.688288Z

Period
93.85 min
Inclination
53.1581°
Eccentricity
0.0001455
Mean motion
15.34400586 rev/d
Perigee alt
461.7 km
Apogee alt
463.7 km
Semi-major
6,840.8 km
B*
9.5288e-5
RAAN
275.4410°
Arg perigee
97.4763°
Mean anomaly
262.6404°
Rev number
23,255

§ Raw data

STARLINK-41151 53032U 22076AY  26263.06371167  .00002844  00000+0  95288-4 0  99932 53032  53.1581 275.4410 0001455  97.4763 262.6404 15.34400586232559

JSON: /api/v1/satellites/53032 · /tle

For live sub-satellite position, see the globe view (requires WebGL).

§ Visibility from observer

Set your observer location to see the next 7 days of passes ≥ 10°. The values pass through the URL so the page stays shareable.

No JS? Fill the form by hand. The geolocation button needs JavaScript.